Location: Lugrin
(46.4033°N, 6.6674°E)
Time: 06:35:06
(UTC+00:00)

SPOT 3 Rocket - Pass Details

Date: 18 September 2020
Orbit: 780 x 794 km, 98.8° (Epoch: 23 October)

Event Time Altitude Azimuth Distance (km) Brightness Sun altitude
Exits shadow 20:03:39 49° 185° (S) 999 3.8 -24.6°
Maximum altitude 20:05:00 75° 256° (WSW) 812 3.6 -24.8°
Drops below altitude 10° 20:10:11 10° 342° (NNW) 2,344 6.6 -25.6°
Sets 20:12:31 0° 345° (NNW) 3,277 7.5 -25.9°
